Flag for U.S.A. Weather past 2 weeks in Austin, Texas, U.S.A.

Now
88 °F

Clear.


Feels Like: 90 °F
Forecast: 78 / 99 °F
Wind: No wind

Location: Camp Mabry / Austin City

Current Time: Jul 31, 2015 at 12:13:43 AM

Latest Report: Jul 30, 2015 at 10:51 PM


Visibility: 10 mi

Pressure: 29.98 "Hg

Humidity: 48%

Dew point: 66 °F

Location of AustinLocation

Historic Weather in Austin — Graph

°F

Austin temperature yesterday

Maximum temperature yesterday: 101 °F (at 3:51 PM)
Minimum temperature yesterday: 75 °F (at 6:51 AM)
Average temperature yesterday: 89 °F

Past Weeks' High & Low Weather Summary

 TemperatureHumidityPressure
High101 °F (Jul 30, 3:51 PM)94% (Jul 21, 6:51 AM)30.06 "Hg (Jul 21, 6:51 AM)
Low75 °F (Jul 16, 5:59 AM)28% (Jul 30, 1:51 PM)29.79 "Hg (Jul 21, 6:51 PM)
Average86 °F63%29.92 "Hg
* Reported Jul 15 10:51 PM — Jul 30 10:51 PM, Austin, Weather by CustomWeather, © 2015

Note: Actual official high and low records may vary slightly from our data, if they occured in-between our weather recording intervals... More about our weather records

Advertising

Austin weather history for previous 24 hours

 ConditionsComfort  
Time TempWeatherWind HumidityBarometerVisibility
10:51 PM
Thu, Jul 30
88 °FClear.No wind48%29.98 "Hg10 mi
9:51 PM91 °FClear.No wind41%29.98 "Hg10 mi
8:51 PM92 °FSunny.3 mph38%29.95 "Hg10 mi
7:51 PM95 °FSunny.6 mph35%29.94 "Hg10 mi
6:51 PM97 °FSunny.No wind32%29.94 "Hg10 mi
5:51 PM100 °FSunny.6 mph29%29.93 "Hg10 mi
4:51 PM100 °FSunny.No wind28%29.96 "Hg10 mi
3:51 PM101 °FPassing clouds.5 mph29%29.99 "Hg10 mi
2:51 PM100 °FSunny.6 mph28%30.01 "Hg10 mi
1:51 PM99 °FSunny.5 mph28%30.03 "Hg10 mi
12:51 PM98 °FSunny.6 mph31%30.04 "Hg10 mi
11:51 AM95 °FSunny.3 mph32%30.06 "Hg10 mi
10:51 AM91 °FSunny.No wind42%30.06 "Hg10 mi
9:51 AM87 °FSunny.No wind48%30.05 "Hg10 mi
8:51 AM82 °FSunny.No wind65%30.05 "Hg10 mi
7:51 AM77 °FSunny.No wind82%30.04 "Hg10 mi
6:51 AM75 °FClear.No wind82%30.03 "Hg10 mi
5:51 AM77 °FClear.No wind79%30.02 "Hg10 mi
4:51 AM77 °FClear.No wind79%30.01 "Hg10 mi
3:51 AM79 °FClear.No wind74%30.00 "Hg10 mi
2:51 AM81 °FClear.No wind72%30.01 "Hg10 mi
1:51 AM82 °FClear.5 mph70%30.01 "Hg10 mi
12:51 AM84 °FClear.6 mph63%30.01 "Hg10 mi
Weather by CustomWeather, © 2015

See weather overviewHow to use our weather pages